SCP
-0 0 -0 -0 -0 -0 -0 -0 -0 -0 0 -0 0 0 0 -0 -0 0 0 0 0 0 0 0 0 0 0 -0 0 0 0 -0 0 -0 -0 -0 -0 -0 0 -0 -0 -0 -0 -0 -0
-0 -0 -0 -0 -0 -0 -0 -0 -0 0 0 -0 0 0 0 0 -0 -0 0 0 0 0 -0 -0 -0 0 -0 -0 -0 -0 0 0 0 0 -0 -0 -0 -0 -0 -0 -0 -0 -0 -0 -0
-0 -0 -0 -0 -0 -0 -0 -0 -0 0 0 -0 0 0 0 -0 0 0 0 0 0 -0 0 -0 0 0 -0 -0 -0 -0 0 0 -0 -0 0 -0 -0 0 -0 -0 0 -0 -0 -0 -0
-0 -0 -0 -0 -0 -0 -0 -0 -0 -0 0 -0 0 0 0 -0 0 0 0 -0 0 -0 -0 -0 -0 -0 0 -0 -0 0 -0 0 0 -0 -0 -0 -0 -0 0 0 0 -0 -0 -0 -0
-0 -0 -0 -0 -0 -0 -0 -0 -0 -0 0 -0 0 0 0 0 0 0 -0 -0 0 -0 -0 0 0 0 -0 -0 -0 0 0 0 0 -0 -0 -0 -0 -0 0 0 0 -0 -0 -0 -0
-0 -0 -0 -0 -0 -0 -0 -0 -0 -0 -0 0 0 -0 0 0 0 0 -0 -0 0 -0 0 0 0 0 0 0 0 0 0 0 -0 -0 -0 0 -0 -0 0 0 0 -0 -0 -0 -0
-0 -0 -0 -0 -0 -0 -0 -0 -0 -0 0 0 0 -0 0 0 0 0 -0 0 -0 0 0 0 0 0 0 -0 -0 0 0 0 0 -0 0 -0 -0 -0 0 0 -0 -0 -0 -0 -0
-0 -0 -0 -0 -0 -0 -0 -0 0 0 0 0 0 -0 0 0 0 0 0 0 -0 0 0 0 0 0 0 0 -0 -0 -0 0 0 -0 -0 -0 -0 0 -0 -0 -0 -0 -0 -0 -0
-0 -0 -0 -0 -0 -0 -0 -0 -0 0 0 0 0 0 0 0 0 0 -0 0 0 0 0 0 0 0 0 -0 -0 -0 -0 0 0 -0 0 -0 0 0 -0 0 -0 -0 -0 -0 -0
-0 -0 -0 -0 -0 -0 -0 -0 0 0 0 0 0 0 0 0 0 0 0 0 0 0 0 0 0 0 0 0 -0 0 0 -0 0 0 -0 0 0 0 -0 0 -0 0 -0 -0 -0
-0 -0 -0 -0 -0 -0 0 0 -0 0 0 0 0 0 0 0 0 0 0 0 0 0 0 0 0 0 0 0 0 0 -0 0 0 0 0 -0 0 0 0 -0 -0 0 0 -0 -0
-0 -0 -0 -0 -0 -0 -0 0 0 0 0 0 -0 -0 -0 0 0 0 0 0 0 0 0 0 0 0 0 0 0 0 0 0 0 0 0 0 0 -0 0 -0 0 -0 0 0 -0
-0 -0 -0 -0 -0 -0 0 0 0 -0 0 0 0 0 0 0 0 0 0 0 0 0 0 0 0 0 0 0 0 0 0 0 0 0 0 0 0 -0 0 -0 -0 0 -0 0 0
0 0 0 -0 0 0 0 0 -0 -0 0 0 0 0 0 0 0 0 0 0 0 0 0 0 0 0 0 0 0 0 0 0 0 0 0 0 0 0 0 0 0 -0 -0 -0 -0
0 0 0 0 0 0 0 0 0 0 0 0 0 0 0 0 0 0 0 0 0 0 0 0 0 0 0 0 0 0 0 0 0 0 0 0 0 -0 0 0 0 0 -0 0 0
0 0 0 0 0 0 0 0 0 0 0 0 0 0 0 0 0 0 0 0 0 0 0 0 0 0 0 0 0 0 0 0 0 0 0 0 0 0 0 0 0 0 0 0 0
0 0 0 0 0 0 0 0 0 0 0 0 0 0 0 0 0 0 0 0 0 0 0 0 0 0 0 0 0 0 0 0 0 0 0 0 0 0 0 0 0 0 0 0 0
0 0 0 0 0 0 0 0 0 0 0 0 0 0 0 0 0 0 0 0 0 0 0 0 0 0 0 0 0 0 0 0 0 0 0 0 0 0 0 0 0 0 0 0 0
0 0 0 0 0 0 0 0 0 0 0 0 0 0 0 0 0 0 0 0 0 0 0 0 0 0 0 0 0 0 0 0 0 0 0 0 0 0 0 0 0 0 0 0 0
0 0 0 0 0 0 0 0 0 0 0 0 0 0 0 0 0 0 0 0 0 0 -0 0 0 0 0 0 0 0 0 0 0 0 0 0 0 0 0 0 0 0 0 0 0
0 0 0 0 0 0 0 0 0 0 0 0 0 0 0 0 0 0 0 0 0 0 0 0 0 0 0 0 0 0 0 0 0 0 0 0 0 0 0 0 0 0 0 0 0
0 0 0 0 0 0 0 0 0 0 0 0 0 0 0 0 0 0 0 0 0 0 0 0 0 0 0 0 0 0 0 0 0 0 0 0 0 0 0 0 0 0 0 0 0
0 0 0 0 0 0 0 0 0 0 0 0 0 0 0 0 0 0 0 0 0 0 0 0 0 0 0 0 0 0 0 0 0 0 0 0 0 0 0 0 0 0 0 0 0
0 0 0 0 0 0 0 0 0 0 0 0 0 0 0 0 0 0 0 0 0 0 0 0 0 0 0 0 0 0 0 0 0 0 0 0 0 0 0 0 0 0 0 0 0
0 0 0 0 0 0 0 0 0 0 0 0 0 0 0 0 0 0 0 0 0 0 0 0 0 0 0 0 0 0 0 0 0 0 0 0 0 0 0 0 0 0 0 0 0
0 0 0 0 0 0 0 0 0 0 0 0 0 0 0 0 0 0 0 0 0 0 0 0 0 0 0 0 0 0 0 0 0 0 0 0 0 0 0 0 0 0 0 0 0
0 0 0 0 0 0 0 0 0 0 0 0 0 0 0 0 0 0 0 0 0 0 0 0 0 0 0 0 0 0 0 0 0 0 0 0 0 0 0 0 0 0 0 0 0
Wind_Speed_500mb
38 37 37 36 36 35 34 29 25 24 23 20 16 12 7 4 5 9 12 13 20 20 16 14 17 17 12 12 9 7 13 16 6 8 20 26 20 22 13 34 20 10 23 41 45
38 37 36 36 36 36 36 28 22 21 21 20 17 15 11 7 4 12 14 21 23 16 16 17 20 19 20 13 10 15 15 7 6 0 14 31 27 26 28 33 26 25 32 46 47
39 39 38 36 35 35 35 27 23 20 18 18 16 17 13 3 6 6 15 23 22 17 13 16 16 17 21 15 14 9 10 6 2 5 9 28 29 19 30 24 30 36 47 49 46
39 40 39 38 36 34 30 25 26 21 17 16 14 17 12 2 1 8 14 22 20 18 14 12 16 23 22 20 15 15 5 9 5 10 18 28 27 19 28 10 24 34 48 50 46
40 39 39 38 36 33 27 25 21 26 17 14 13 15 11 4 9 9 14 18 20 18 15 12 18 21 25 20 13 18 3 3 6 18 17 22 21 16 22 15 20 44 48 49 44
42 41 39 38 37 32 27 22 23 26 21 12 12 14 12 13 5 4 19 24 19 18 12 9 7 11 7 9 18 4 8 11 12 22 22 23 16 11 19 22 33 50 50 45 43
42 42 41 39 36 34 29 24 24 26 23 12 10 13 12 8 7 5 17 22 21 15 7 7 7 12 2 10 8 8 17 17 17 21 11 16 19 19 21 24 35 45 46 46 44
43 43 41 38 36 34 29 25 27 25 20 11 10 11 10 11 5 8 15 18 20 17 11 6 8 10 9 7 10 19 16 25 20 20 10 19 27 20 21 34 32 38 45 49 47
43 42 41 39 35 33 28 26 29 25 14 7 10 4 11 10 9 13 17 15 17 12 10 10 6 7 10 20 16 17 29 37 22 20 14 23 15 24 22 26 28 35 44 48 49
43 41 40 39 37 32 27 25 23 16 6 11 13 9 13 13 12 12 17 21 15 16 12 11 14 16 15 18 24 30 39 37 26 24 23 29 30 11 16 27 29 32 43 47 51
41 41 38 38 35 27 24 19 16 2 7 23 11 16 6 7 11 16 24 21 18 20 24 18 20 25 24 7 24 26 36 29 25 13 26 33 30 32 25 21 32 35 41 47 52
40 39 36 34 23 25 19 9 12 15 23 31 34 34 27 5 11 21 28 32 26 29 19 15 30 24 2 7 11 19 28 30 23 8 19 31 36 32 24 35 38 39 43 48 47
38 38 35 33 12 27 12 13 24 22 15 8 10 11 20 32 22 25 35 33 27 30 25 31 7 7 21 20 19 19 23 20 23 12 19 14 29 34 37 43 42 46 46 47 51
39 39 37 31 9 24 4 20 27 13 10 12 10 8 14 22 21 23 38 28 17 25 22 21 23 15 24 31 24 27 23 16 17 15 23 32 25 26 23 29 37 51 47 54 54
39 40 34 31 25 12 9 22 20 4 9 5 11 8 18 27 17 28 34 29 26 22 14 16 21 32 24 23 28 33 24 29 28 26 26 22 19 32 12 23 31 47 55 57 59
37 40 37 31 26 9 14 13 5 11 7 5 6 10 19 30 17 16 29 30 21 23 22 29 4 20 26 12 20 3 16 25 26 28 30 40 30 30 25 24 23 36 46 53 53
35 35 36 28 15 20 9 3 10 11 5 5 2 3 13 20 30 21 25 35 27 23 26 28 30 27 23 24 15 23 26 19 25 29 32 38 23 29 35 17 23 28 26 34 42
36 32 30 26 15 13 6 11 15 2 10 3 6 16 17 15 21 34 16 29 34 27 15 21 27 36 27 34 27 37 35 28 31 30 34 15 19 27 19 23 20 18 15 15 18
36 32 20 19 12 8 15 16 8 11 4 7 17 17 16 16 11 24 33 28 30 31 27 12 18 1 10 21 21 18 20 23 26 8 18 18 15 16 21 18 20 21 15 17 17
36 28 7 15 8 12 15 23 12 7 8 8 10 3 11 11 15 20 26 19 29 27 38 18 23 15 10 16 10 15 7 14 18 31 34 23 17 14 16 22 22 20 20 21 14
27 13 11 6 9 13 17 18 10 14 9 8 10 15 15 10 11 17 13 12 14 17 26 23 20 21 16 22 26 15 20 15 12 14 24 23 19 15 15 19 19 22 18 18 14
10 9 10 2 12 7 16 6 5 17 7 16 15 24 25 19 16 12 15 7 7 18 14 19 13 21 34 18 13 23 28 22 19 26 21 20 26 3 11 19 24 24 21 20 22
17 11 11 7 10 13 6 16 11 17 18 8 13 13 5 15 12 21 23 7 6 11 9 14 15 17 22 18 15 20 27 29 28 20 32 29 23 17 19 21 28 31 27 27 24
10 6 3 3 4 11 10 18 17 15 22 25 21 16 18 21 21 15 15 13 5 14 12 10 22 25 26 26 6 23 26 29 31 25 32 34 35 28 25 26 33 34 35 31 31
5 3 5 3 7 7 7 8 17 13 9 16 16 25 31 29 30 33 32 33 36 20 13 11 31 35 39 40 26 34 35 32 32 35 38 36 37 24 28 26 23 32 28 25 30
8 8 6 12 11 14 7 14 17 11 13 23 16 20 18 20 22 27 20 19 21 24 18 16 27 32 41 38 37 42 42 40 43 39 42 39 41 36 38 19 23 23 22 28 33
3 4 5 1 6 11 9 8 3 10 13 14 9 21 23 16 26 33 37 38 36 31 30 26 23 31 42 39 43 52 47 45 44 43 38 42 40 33 20 24 33 35 35 35 35
Wind_Direction_500mb
11 8 7 5 2 2 360 358 0 5 5 2 1 0 356 308 228 211 225 205 187 175 175 185 186 196 209 215 222 251 240 217 96 185 124 154 143 144 120 139 140 93 129 148 152
5 4 3 360 359 359 356 354 354 359 1 0 5 4 354 328 265 238 208 184 174 178 179 187 192 192 205 204 208 247 252 91 26 217 159 165 149 150 154 153 135 117 135 148 153
1 360 358 356 355 357 354 354 355 348 350 357 5 7 358 51 140 118 183 173 179 175 191 195 199 206 217 204 192 180 275 26 37 226 224 153 146 159 154 175 160 150 152 156 161
358 355 353 353 351 354 354 354 347 346 338 342 350 3 9 131 142 151 143 167 178 175 179 189 210 213 218 203 191 241 260 311 29 154 186 164 153 166 164 147 160 161 162 163 169
355 352 350 349 347 349 349 347 349 350 331 324 329 344 7 243 109 180 172 170 180 177 192 206 233 221 213 203 198 231 203 278 178 161 159 149 176 181 193 165 157 161 167 170 175
352 349 349 346 344 344 342 337 335 341 339 315 310 321 344 241 187 173 185 185 179 181 199 216 281 254 258 222 240 104 202 148 164 152 156 177 171 209 173 163 154 164 171 174 177
348 346 346 345 340 337 337 330 328 329 336 298 290 306 288 321 177 128 165 183 191 189 187 240 288 265 245 188 193 204 183 163 166 171 148 198 197 216 168 166 165 175 178 178 182
344 345 345 344 337 333 332 327 328 324 325 284 291 303 273 214 194 171 166 181 188 193 193 286 281 270 266 148 187 213 231 190 154 182 150 215 193 155 177 191 189 192 186 187 189
343 344 343 342 338 330 329 326 324 317 303 266 307 255 224 202 180 174 176 185 175 179 217 249 270 252 189 222 203 204 203 209 154 208 165 208 238 131 184 195 206 202 196 195 195
341 343 344 342 340 333 331 331 321 317 260 292 253 234 223 191 174 176 179 167 167 160 163 200 218 229 221 231 215 199 235 198 182 189 215 201 244 144 209 215 213 206 203 205 205
340 342 346 343 346 337 352 347 343 304 275 268 275 266 242 220 212 201 185 181 183 202 213 202 238 219 220 264 319 303 224 201 205 138 210 225 226 233 201 229 229 212 208 208 213
338 341 346 345 353 355 6 56 40 309 300 279 255 249 235 224 215 188 179 194 201 211 204 213 228 236 344 246 258 238 220 207 131 158 228 226 235 244 227 239 239 227 215 215 215
335 339 345 347 357 356 15 2 345 343 267 282 216 229 221 207 218 193 186 206 208 219 211 242 230 248 224 217 237 224 231 195 230 162 229 263 254 252 242 243 236 238 232 222 220
334 336 341 353 11 350 351 339 338 343 273 135 178 154 171 181 215 203 197 200 210 226 222 246 224 214 220 228 228 238 215 232 204 219 234 198 257 234 224 221 227 231 229 231 226
332 329 336 343 328 344 295 329 332 336 283 81 115 143 171 195 120 187 196 209 235 211 224 231 208 212 213 219 211 241 227 226 223 227 253 207 247 270 178 230 231 225 226 230 231
329 323 326 332 327 304 309 317 322 237 234 132 131 175 173 203 197 147 192 216 239 235 223 262 161 223 217 225 229 201 217 232 228 238 232 247 227 254 238 215 245 222 227 233 234
327 319 316 319 291 305 292 241 240 250 105 123 121 206 233 201 213 203 191 201 211 215 224 218 224 224 237 226 196 214 199 207 217 225 244 247 241 252 277 283 268 282 284 235 236
328 321 311 309 292 290 202 225 241 261 263 341 290 285 246 202 220 210 212 211 215 228 272 226 219 211 204 231 219 202 214 236 235 238 244 153 237 251 249 280 248 254 264 271 260
334 329 315 305 286 268 215 225 244 242 322 286 284 260 225 220 258 211 218 234 219 212 234 224 240 115 247 228 239 187 226 259 278 260 280 261 193 271 227 238 236 246 263 279 290
336 332 282 314 277 183 225 238 267 263 299 256 264 245 269 208 230 211 204 222 226 219 223 244 266 235 153 200 191 265 127 209 216 253 250 250 236 262 181 219 221 221 238 257 265
341 312 307 3 143 196 238 243 270 247 257 270 270 259 259 280 264 252 252 171 209 190 217 235 235 230 201 212 230 182 226 237 296 287 269 265 261 217 228 228 214 221 234 254 235
342 276 282 80 241 225 241 237 332 267 234 251 268 268 263 271 274 255 249 254 177 164 189 208 237 242 236 247 258 268 258 240 248 234 238 277 278 125 224 222 211 226 232 231 227
323 282 312 244 255 221 222 263 264 265 257 246 252 240 244 252 255 243 258 241 281 247 234 181 214 238 228 206 214 232 226 240 248 270 263 271 263 187 198 234 225 235 241 237 220
321 281 191 199 287 298 293 270 260 267 271 258 261 264 249 252 246 265 254 260 284 277 302 244 244 241 254 260 320 207 226 226 232 253 261 250 253 252 210 227 237 235 242 248 233
301 48 323 311 129 321 272 294 278 276 255 270 258 247 258 262 256 252 254 265 272 260 252 240 241 240 252 261 265 263 260 242 231 248 256 269 273 272 260 274 239 247 248 241 239
309 322 299 280 287 276 228 264 279 309 278 272 274 327 311 273 270 288 298 276 269 285 263 231 255 254 255 251 251 252 250 254 260 250 260 263 261 272 269 257 240 233 233 244 254
314 307 289 233 260 264 254 277 316 327 269 283 348 316 282 308 332 302 287 278 275 283 285 268 261 245 250 250 260 257 252 253 256 252 252 258 258 261 224 240 256 259 258 261 264
Wind_Speed_850mb
38 37 37 36 36 35 34 29 25 24 23 20 16 12 7 4 5 9 12 13 20 20 16 14 17 17 12 12 9 7 13 16 6 8 20 26 20 22 13 34 20 10 23 41 45
38 37 36 36 36 36 36 28 22 21 21 20 17 15 11 7 4 12 14 21 23 16 16 17 20 19 20 13 10 15 15 7 6 0 14 31 27 26 28 33 26 25 32 46 47
39 39 38 36 35 35 35 27 23 20 18 18 16 17 13 3 6 6 15 23 22 17 13 16 16 17 21 15 14 9 10 6 2 5 9 28 29 19 30 24 30 36 47 49 46
39 40 39 38 36 34 30 25 26 21 17 16 14 17 12 2 1 8 14 22 20 18 14 12 16 23 22 20 15 15 5 9 5 10 18 28 27 19 28 10 24 34 48 50 46
40 39 39 38 36 33 27 25 21 26 17 14 13 15 11 4 9 9 14 18 20 18 15 12 18 21 25 20 13 18 3 3 6 18 17 22 21 16 22 15 20 44 48 49 44
42 41 39 38 37 32 27 22 23 26 21 12 12 14 12 13 5 4 19 24 19 18 12 9 7 11 7 9 18 4 8 11 12 22 22 23 16 11 19 22 33 50 50 45 43
42 42 41 39 36 34 29 24 24 26 23 12 10 13 12 8 7 5 17 22 21 15 7 7 7 12 2 10 8 8 17 17 17 21 11 16 19 19 21 24 35 45 46 46 44
43 43 41 38 36 34 29 25 27 25 20 11 10 11 10 11 5 8 15 18 20 17 11 6 8 10 9 7 10 19 16 25 20 20 10 19 27 20 21 34 32 38 45 49 47
43 42 41 39 35 33 28 26 29 25 14 7 10 4 11 10 9 13 17 15 17 12 10 10 6 7 10 20 16 17 29 37 22 20 14 23 15 24 22 26 28 35 44 48 49
43 41 40 39 37 32 27 25 23 16 6 11 13 9 13 13 12 12 17 21 15 16 12 11 14 16 15 18 24 30 39 37 26 24 23 29 30 11 16 27 29 32 43 47 51
41 41 38 38 35 27 24 19 16 2 7 23 11 16 6 7 11 16 24 21 18 20 24 18 20 25 24 7 24 26 36 29 25 13 26 33 30 32 25 21 32 35 41 47 52
40 39 36 34 23 25 19 9 12 15 23 31 34 34 27 5 11 21 28 32 26 29 19 15 30 24 2 7 11 19 28 30 23 8 19 31 36 32 24 35 38 39 43 48 47
38 38 35 33 12 27 12 13 24 22 15 8 10 11 20 32 22 25 35 33 27 30 25 31 7 7 21 20 19 19 23 20 23 12 19 14 29 34 37 43 42 46 46 47 51
39 39 37 31 9 24 4 20 27 13 10 12 10 8 14 22 21 23 38 28 17 25 22 21 23 15 24 31 24 27 23 16 17 15 23 32 25 26 23 29 37 51 47 54 54
39 40 34 31 25 12 9 22 20 4 9 5 11 8 18 27 17 28 34 29 26 22 14 16 21 32 24 23 28 33 24 29 28 26 26 22 19 32 12 23 31 47 55 57 59
37 40 37 31 26 9 14 13 5 11 7 5 6 10 19 30 17 16 29 30 21 23 22 29 4 20 26 12 20 3 16 25 26 28 30 40 30 30 25 24 23 36 46 53 53
35 35 36 28 15 20 9 3 10 11 5 5 2 3 13 20 30 21 25 35 27 23 26 28 30 27 23 24 15 23 26 19 25 29 32 38 23 29 35 17 23 28 26 34 42
36 32 30 26 15 13 6 11 15 2 10 3 6 16 17 15 21 34 16 29 34 27 15 21 27 36 27 34 27 37 35 28 31 30 34 15 19 27 19 23 20 18 15 15 18
36 32 20 19 12 8 15 16 8 11 4 7 17 17 16 16 11 24 33 28 30 31 27 12 18 1 10 21 21 18 20 23 26 8 18 18 15 16 21 18 20 21 15 17 17
36 28 7 15 8 12 15 23 12 7 8 8 10 3 11 11 15 20 26 19 29 27 38 18 23 15 10 16 10 15 7 14 18 31 34 23 17 14 16 22 22 20 20 21 14
27 13 11 6 9 13 17 18 10 14 9 8 10 15 15 10 11 17 13 12 14 17 26 23 20 21 16 22 26 15 20 15 12 14 24 23 19 15 15 19 19 22 18 18 14
10 9 10 2 12 7 16 6 5 17 7 16 15 24 25 19 16 12 15 7 7 18 14 19 13 21 34 18 13 23 28 22 19 26 21 20 26 3 11 19 24 24 21 20 22
17 11 11 7 10 13 6 16 11 17 18 8 13 13 5 15 12 21 23 7 6 11 9 14 15 17 22 18 15 20 27 29 28 20 32 29 23 17 19 21 28 31 27 27 24
10 6 3 3 4 11 10 18 17 15 22 25 21 16 18 21 21 15 15 13 5 14 12 10 22 25 26 26 6 23 26 29 31 25 32 34 35 28 25 26 33 34 35 31 31
5 3 5 3 7 7 7 8 17 13 9 16 16 25 31 29 30 33 32 33 36 20 13 11 31 35 39 40 26 34 35 32 32 35 38 36 37 24 28 26 23 32 28 25 30
8 8 6 12 11 14 7 14 17 11 13 23 16 20 18 20 22 27 20 19 21 24 18 16 27 32 41 38 37 42 42 40 43 39 42 39 41 36 38 19 23 23 22 28 33
3 4 5 1 6 11 9 8 3 10 13 14 9 21 23 16 26 33 37 38 36 31 30 26 23 31 42 39 43 52 47 45 44 43 38 42 40 33 20 24 33 35 35 35 35
Wind_Direction_850mb
11 8 7 5 2 2 360 358 0 5 5 2 1 0 356 308 228 211 225 205 187 175 175 185 186 196 209 215 222 251 240 217 96 185 124 154 143 144 120 139 140 93 129 148 152
5 4 3 360 359 359 356 354 354 359 1 0 5 4 354 328 265 238 208 184 174 178 179 187 192 192 205 204 208 247 252 91 26 217 159 165 149 150 154 153 135 117 135 148 153
1 360 358 356 355 357 354 354 355 348 350 357 5 7 358 51 140 118 183 173 179 175 191 195 199 206 217 204 192 180 275 26 37 226 224 153 146 159 154 175 160 150 152 156 161
358 355 353 353 351 354 354 354 347 346 338 342 350 3 9 131 142 151 143 167 178 175 179 189 210 213 218 203 191 241 260 311 29 154 186 164 153 166 164 147 160 161 162 163 169
355 352 350 349 347 349 349 347 349 350 331 324 329 344 7 243 109 180 172 170 180 177 192 206 233 221 213 203 198 231 203 278 178 161 159 149 176 181 193 165 157 161 167 170 175
352 349 349 346 344 344 342 337 335 341 339 315 310 321 344 241 187 173 185 185 179 181 199 216 281 254 258 222 240 104 202 148 164 152 156 177 171 209 173 163 154 164 171 174 177
348 346 346 345 340 337 337 330 328 329 336 298 290 306 288 321 177 128 165 183 191 189 187 240 288 265 245 188 193 204 183 163 166 171 148 198 197 216 168 166 165 175 178 178 182
344 345 345 344 337 333 332 327 328 324 325 284 291 303 273 214 194 171 166 181 188 193 193 286 281 270 266 148 187 213 231 190 154 182 150 215 193 155 177 191 189 192 186 187 189
343 344 343 342 338 330 329 326 324 317 303 266 307 255 224 202 180 174 176 185 175 179 217 249 270 252 189 222 203 204 203 209 154 208 165 208 238 131 184 195 206 202 196 195 195
341 343 344 342 340 333 331 331 321 317 260 292 253 234 223 191 174 176 179 167 167 160 163 200 218 229 221 231 215 199 235 198 182 189 215 201 244 144 209 215 213 206 203 205 205
340 342 346 343 346 337 352 347 343 304 275 268 275 266 242 220 212 201 185 181 183 202 213 202 238 219 220 264 319 303 224 201 205 138 210 225 226 233 201 229 229 212 208 208 213
338 341 346 345 353 355 6 56 40 309 300 279 255 249 235 224 215 188 179 194 201 211 204 213 228 236 344 246 258 238 220 207 131 158 228 226 235 244 227 239 239 227 215 215 215
335 339 345 347 357 356 15 2 345 343 267 282 216 229 221 207 218 193 186 206 208 219 211 242 230 248 224 217 237 224 231 195 230 162 229 263 254 252 242 243 236 238 232 222 220
334 336 341 353 11 350 351 339 338 343 273 135 178 154 171 181 215 203 197 200 210 226 222 246 224 214 220 228 228 238 215 232 204 219 234 198 257 234 224 221 227 231 229 231 226
332 329 336 343 328 344 295 329 332 336 283 81 115 143 171 195 120 187 196 209 235 211 224 231 208 212 213 219 211 241 227 226 223 227 253 207 247 270 178 230 231 225 226 230 231
329 323 326 332 327 304 309 317 322 237 234 132 131 175 173 203 197 147 192 216 239 235 223 262 161 223 217 225 229 201 217 232 228 238 232 247 227 254 238 215 245 222 227 233 234
327 319 316 319 291 305 292 241 240 250 105 123 121 206 233 201 213 203 191 201 211 215 224 218 224 224 237 226 196 214 199 207 217 225 244 247 241 252 277 283 268 282 284 235 236
328 321 311 309 292 290 202 225 241 261 263 341 290 285 246 202 220 210 212 211 215 228 272 226 219 211 204 231 219 202 214 236 235 238 244 153 237 251 249 280 248 254 264 271 260
334 329 315 305 286 268 215 225 244 242 322 286 284 260 225 220 258 211 218 234 219 212 234 224 240 115 247 228 239 187 226 259 278 260 280 261 193 271 227 238 236 246 263 279 290
336 332 282 314 277 183 225 238 267 263 299 256 264 245 269 208 230 211 204 222 226 219 223 244 266 235 153 200 191 265 127 209 216 253 250 250 236 262 181 219 221 221 238 257 265
341 312 307 3 143 196 238 243 270 247 257 270 270 259 259 280 264 252 252 171 209 190 217 235 235 230 201 212 230 182 226 237 296 287 269 265 261 217 228 228 214 221 234 254 235
342 276 282 80 241 225 241 237 332 267 234 251 268 268 263 271 274 255 249 254 177 164 189 208 237 242 236 247 258 268 258 240 248 234 238 277 278 125 224 222 211 226 232 231 227
323 282 312 244 255 221 222 263 264 265 257 246 252 240 244 252 255 243 258 241 281 247 234 181 214 238 228 206 214 232 226 240 248 270 263 271 263 187 198 234 225 235 241 237 220
321 281 191 199 287 298 293 270 260 267 271 258 261 264 249 252 246 265 254 260 284 277 302 244 244 241 254 260 320 207 226 226 232 253 261 250 253 252 210 227 237 235 242 248 233
301 48 323 311 129 321 272 294 278 276 255 270 258 247 258 262 256 252 254 265 272 260 252 240 241 240 252 261 265 263 260 242 231 248 256 269 273 272 260 274 239 247 248 241 239
309 322 299 280 287 276 228 264 279 309 278 272 274 327 311 273 270 288 298 276 269 285 263 231 255 254 255 251 251 252 250 254 260 250 260 263 261 272 269 257 240 233 233 244 254
314 307 289 233 260 264 254 277 316 327 269 283 348 316 282 308 332 302 287 278 275 283 285 268 261 245 250 250 260 257 252 253 256 252 252 258 258 261 224 240 256 259 258 261 264